{"data":{"norad_id":59521,"intl_designator":"2024-073L","name":"STARLINK-31404","alt_names":[],"object_type":"PAYLOAD","status":"ACTIVE","operator":null,"country":"US","launch_date":"2024-04-17","launch_site_code":"AFETR","launch_vehicle":null,"mission":null,"orbit_class":"UNKNOWN","rcs_meters":null,"size_class":null,"mass_kg":null,"dimensions":null,"purposes":["comms"],"wikipedia_slug":null,"has_3d_model":false,"image_url":null,"decayed_at":null,"tle_current":{"epoch":"2026-09-21T03:24:41.273568Z","epoch_age_seconds":109735,"freshness":"FRESH","line1":"1 59521U 24073L   26264.14214437  .00001123  00000+0  50332-4 0  9997","line2":"2 59521  43.0042 294.5387 0001342 275.5449  84.5249 15.27576865136061","mean_motion":15.27576865,"eccentricity":0.0001342,"inclination_deg":43.0042,"raan_deg":294.5387,"arg_perigee_deg":275.5449,"mean_anomaly_deg":84.5249,"bstar":5.0332e-5,"rev_number":13606,"period_min":94.266942174461,"perigee_km":482.13771093965,"apogee_km":483.97925580739,"semimajor_km":6861.1954833735,"source":"CELESTRAK","updated_at":"2026-09-22T09:00:48.964579Z"}}}